Flag for Germany Weather past 2 weeks in Erfurt, Thuringia, Germany

Now
61 °F

Partly sunny.


Feels Like: 61 °F
Forecast: 53 / 67 °F
Wind: 10 mph from Northwest

Location: Erfurt-Bindersleben

Current Time: Sep 1, 2015 at 9:06:45 PM

Latest Report: Sep 1, 2015 at 8:20 PM


Visibility: N/A

Pressure: 29.95 "Hg

Humidity: 83%

Dew point: 55 °F

Location of ErfurtLocation

Historic Weather in Erfurt — Graph

°F

Erfurt temperature yesterday

Maximum temperature yesterday: 91 °F (at 3:20 PM)
Minimum temperature yesterday: 63 °F (at 6:20 AM)
Average temperature yesterday: 77 °F

Past Weeks' High & Low Weather Summary

 TemperatureHumidityPressure
High91 °F (Aug 30, 3:50 PM)100% (Aug 19, 4:20 AM)30.30 "Hg (Aug 19, 4:20 AM)
Low48 °F (Aug 19, 6:50 AM)28% (Aug 31, 4:20 PM)29.71 "Hg (Aug 24, 1:50 PM)
Average65 °F70%30.03 "Hg
* Reported Aug 17 7:20 PM — Sep 1 7:50 PM, Erfurt, Weather by CustomWeather, © 2015

Note: Actual official high and low records may vary slightly from our data, if they occured in-between our weather recording intervals... More about our weather records

Advertising

Erfurt weather history for previous 24 hours

 ConditionsComfort  
Time TempWeatherWind HumidityBarometerVisibility
7:50 PM
Tue, Sep 1
61 °FPartly sunny.9 mph83%29.92 "HgN/A
7:20 PM61 °FPartly sunny.12 mph77%29.92 "HgN/A
6:50 PM61 °FPartly sunny.13 mph83%29.92 "HgN/A
6:20 PM61 °FLight rain. Broken clouds.18 mph83%29.89 "HgN/A
5:20 PM63 °FLight rain. Partly sunny.21 mph83%29.83 "HgN/A
4:50 PM68 °FBroken clouds.13 mph69%29.83 "HgN/A
4:20 PM72 °FLight rain. Broken clouds.16 mph61%29.80 "HgN/A
3:50 PM73 °FPartly sunny.25 mph53%29.80 "HgN/A
3:20 PM77 °FBroken clouds.21 mph47%29.80 "HgN/A
2:50 PM79 °FBroken clouds.17 mph45%29.77 "HgN/A
2:20 PM79 °FPartly sunny.18 mph42%29.77 "HgN/A
1:50 PM81 °FPartly sunny.8 mph48%29.77 "HgN/A
1:20 PM79 °FPartly sunny.1 mph54%29.77 "HgN/A
12:50 PM79 °FPartly sunny.2 mph54%29.80 "HgN/A
12:20 PM79 °FScattered clouds.5 mph54%29.80 "HgN/A
11:50 AM75 °FSunny.3 mph61%29.80 "Hg10 mi
11:20 AM75 °FSunny.3 mph61%29.80 "Hg10 mi
10:50 AM75 °FSunny.5 mph61%29.80 "Hg10 mi
10:20 AM73 °FSunny.6 mph65%29.80 "Hg10 mi
9:50 AM72 °FSunny.5 mph61%29.83 "Hg10 mi
9:20 AM72 °FSunny.2 mph61%29.83 "Hg10 mi
8:50 AM72 °FSunny.3 mph57%29.83 "Hg10 mi
8:20 AM68 °FSunny.3 mph69%29.83 "Hg10 mi
7:50 AM66 °FSunny.3 mph73%29.83 "Hg10 mi
7:20 AM64 °FClear.5 mph73%29.83 "Hg10 mi
6:50 AM64 °FClear.7 mph68%29.83 "Hg10 mi
5:20 AM68 °FClear.3 mph60%29.83 "Hg10 mi
4:50 AM68 °FClear.No wind60%29.83 "Hg10 mi
4:20 AM68 °FClear.6 mph60%29.83 "Hg10 mi
3:50 AM70 °FClear.7 mph57%29.83 "Hg10 mi
3:20 AM70 °FClear.8 mph57%29.83 "Hg10 mi
2:50 AM70 °FClear.10 mph57%29.83 "Hg10 mi
2:20 AM66 °FClear.9 mph68%29.83 "Hg10 mi
1:50 AM68 °FClear.8 mph64%29.80 "Hg10 mi
1:20 AM68 °FClear.8 mph64%29.83 "Hg10 mi
12:50 AM70 °FClear.8 mph60%29.83 "Hg10 mi
12:20 AM72 °FClear.9 mph57%29.83 "Hg10 mi
11:20 PM
Mon, Aug 31
73 °FClear.8 mph53%29.83 "Hg10 mi
10:50 PM75 °FClear.7 mph50%29.83 "Hg10 mi
10:20 PM75 °FClear.7 mph50%29.83 "Hg10 mi
9:50 PM75 °FClear.7 mph50%29.83 "Hg10 mi
9:20 PM79 °FClear.6 mph42%29.83 "Hg10 mi
Weather by CustomWeather, © 2015

See weather overviewHow to use our weather pages